Simultaneous Nadir Overpasses (SNOs) Predictions

Prediction of SNOs between LANDSAT-8 and METOP-B Satellite Orbit:

Table of predicted SNOs for the next 14.0 days since TLE Epoch: 6/6/2015
Index Date (LANDSAT-8) Time (LANDSAT-8) Lat,Lon (LANDSAT-8) SZA (LANDSAT-8 ) Date (METOP-B) Time (METOP-B) Lat,Lon (METOP-B) SZA (METOP-B ) Distance(km) Time Diff (sec)
1 06/07/2015 17:05:24 81.10, -36.77 60.51 06/07/2015 17:04:37 81.10, -36.87 60.47 1.82 47
2 06/07/2015 17:54:50 -81.12, 131.18 119.46 06/07/2015 17:55:16 -81.12, 131.10 119.45 1.41 26
3 06/10/2015 12:39:40 81.10, 29.74 60.26 06/10/2015 12:38:59 81.11, 29.76 60.25 0.34 41
4 06/10/2015 13:29:06 -81.13,-162.29 119.69 06/10/2015 13:29:38 -81.13,-162.26 119.67 0.57 32
5 06/13/2015 08:13:57 81.10, 96.14 60.06 06/13/2015 08:13:23 81.10, 96.00 60.02 2.54 34
6 06/13/2015 09:03:23 -81.12, -95.86 119.90 06/13/2015 09:04:02 -81.12, -96.00 119.90 2.53 39
7 06/16/2015 03:48:13 81.12, 162.81 59.94 06/16/2015 03:47:45 81.12, 162.97 59.95 2.83 28
8 06/16/2015 04:37:39 -81.14, -29.17 120.01 06/16/2015 04:38:24 -81.14, -29.01 119.97 2.68 45
9 06/18/2015 23:22:28 81.12,-130.63 59.86 06/18/2015 23:22:07 81.13,-130.45 59.88 3.20 21




NCC Satellite Simultaneous Nadir Overpasses (SNOs) Prediction Service
